Location: Unspecified
(0.0000°N, 0.0000°E)
Time: 19:31:51
(UTC+00:00)

Vanguard 3 - Pass Details

Date: 16 December 2017
Orbit: 508 x 3264 km, 33.3° (Epoch: 18 June)

Event Time Altitude Azimuth Distance (km) Brightness Sun altitude
Rises 01:46:44 0° 230° (SW) 6,701 11.8 -54.3°
Reaches altitude 10° 01:53:51 10° 212° (SSW) 6,018 11.6 -53.0°
Maximum altitude 02:05:28 18° 175° (S) 5,526 11.5 -50.8°
Drops below altitude 10° 02:16:54 10° 138° (SE) 5,943 12.0 -48.5°
Sets 02:23:47 0° 120° (ESE) 6,594 12.5 -47.1°
